{"data":{"norad_id":68198,"epoch":"2026-05-25T04:26:06.078048Z","epoch_age_seconds":69494,"freshness":"FRESH","line1":"1 68198U 26052A   26145.18479257  .00004756  00000+0  29097-3 0  9999","line2":"2 68198  97.5331 220.3151 0013940  34.2433 325.9693 15.10627952 10570","mean_motion":15.10627952,"eccentricity":0.001394,"inclination_deg":97.5331,"raan_deg":220.3151,"arg_perigee_deg":34.2433,"mean_anomaly_deg":325.9693,"bstar":0.00029097,"rev_number":1057,"period_min":95.324596509254,"perigee_km":524.64781148118,"apogee_km":543.91964046519,"semimajor_km":6912.4207259732,"source":"CELESTRAK","updated_at":"2026-05-25T13:38:07.619145Z"}}